Bradford, PA

6:33 PM EDT on August 17, 2017 (GMT -0400)
Bradford Regional

Weather History for KBFD - October, 2014

Change the Weather History Date:

Monday, October 20, 2014

  Actual Average Record
Temperature  
Mean Temperature 43 °F 45 °F  
Max Temperature 53 °F 56 °F 75 °F (1963)
Min Temperature 32 °F 35 °F 12 °F (1972)
Degree Days  
Heating Degree Days 22 15  
Month to date heating degree days 282 251  
Since 1 July heating degree days 683 668  
Cooling Degree Days 0 0  
Month to date cooling degree days 1 0  
Year to date cooling degree days 196 192  
Moisture  
Dew Point 37 °F    
Average Humidity 73    
Maximum Humidity 86    
Minimum Humidity 59    
Precipitation  
Precipitation 0.18 in 0.10 in 0.92 in (2006)
Month to date precipitation 3.08 2.27  
Year to date precipitation 36.67 36.14  
Sea Level Pressure  
Sea Level Pressure 29.94 in    
Wind  
Wind Speed 5 mph (SSW)    
Max Wind Speed 15 mph    
Max Gust Speed 21 mph    
Visibility 9 miles    
Events Rain    
T = Trace of Precipitation, MM = Missing Value Source: NWS Daily Summary

Daily Weather History Graph

Daily Weather History Graph

Search for Another Location

Airport or City:

Trip Planner

Search our weather history database for the weather conditions in past years. The results will help you decide how hot, cold, wet, or windy it might be!

Date:

Astronomy

Oct. 20, 2014 Rise Set
Actual Time 7:32 AM EDT 6:25 PM EDT
Civil Twilight 7:04 AM EDT 6:53 PM EDT
Nautical Twilight 6:31 AM EDT 7:26 PM EDT
Astronomical Twilight 5:59 AM EDT 7:58 PM EDT
Moon 4:16 AM EDT (10/20) 4:49 PM EDT (10/20)
Length of Visible Light 11h 49m
Length of Day
10h 52m
Waning Crescent, 10% of the Moon is Illuminated
Oct 20
Waning Crescent
Oct 23
New
Oct 30
First Quarter
Nov 6
Full
Nov 14
Last Quarter

Hourly Weather History & Observations

Time (EDT) Temp. Windchill Dew Point Humidity Pressure Visibility Wind Dir Wind Speed Gust Speed Precip Events Conditions
12:53 AM 30.9 °F - 28.9 °F 92% 30.06 in 10.0 mi Calm Calm - N/A   Partly Cloudy
1:53 AM 35.1 °F - 30.9 °F 85% 30.04 in 10.0 mi Calm Calm - N/A   Overcast
2:53 AM 35.1 °F - 30.9 °F 85% 30.04 in 10.0 mi Calm Calm - N/A   Overcast
3:53 AM 37.9 °F 35.5 °F 30.0 °F 73% 30.03 in 10.0 mi Variable 3.5 mph - N/A   Mostly Cloudy
4:53 AM 37.9 °F - 30.0 °F 73% 30.02 in 10.0 mi Calm Calm - N/A   Scattered Clouds
5:53 AM 39.0 °F 36.8 °F 30.9 °F 73% 30.01 in 10.0 mi SSW 3.5 mph - N/A   Scattered Clouds
6:53 AM 39.0 °F 35.7 °F 32.0 °F 76% 30.00 in 10.0 mi SSW 4.6 mph - N/A   Partly Cloudy
7:53 AM 39.9 °F 37.8 °F 33.1 °F 77% 30.00 in 10.0 mi South 3.5 mph - N/A   Overcast
8:53 AM 41.0 °F 38.0 °F 33.1 °F 73% 30.00 in 10.0 mi Variable 4.6 mph - N/A   Overcast
9:53 AM 42.1 °F 37.7 °F 34.0 °F 73% 30.00 in 10.0 mi South 6.9 mph - N/A   Overcast
10:53 AM 45.0 °F 39.7 °F 36.0 °F 71% 29.99 in 10.0 mi SSW 10.4 mph - N/A   Overcast
11:53 AM 46.9 °F - 37.0 °F 68% 29.97 in 10.0 mi South 10.4 mph 18.4 mph N/A   Overcast
12:53 PM 48.0 °F - 37.0 °F 66% 29.93 in 10.0 mi Variable 6.9 mph 18.4 mph N/A   Overcast
1:53 PM 51.1 °F - 37.9 °F 61% 29.90 in 10.0 mi Variable 6.9 mph 17.3 mph N/A   Overcast
2:53 PM 51.1 °F - 37.9 °F 61% 29.90 in 10.0 mi SW 8.1 mph - 0.00 in   Overcast
3:53 PM 51.1 °F - 37.9 °F 61% 29.89 in 10.0 mi SSW 10.4 mph - N/A   Overcast
4:53 PM 52.0 °F - 39.0 °F 61% 29.88 in 10.0 mi SW 3.5 mph - N/A   Overcast
5:53 PM 51.1 °F - 37.9 °F 61% 29.88 in 10.0 mi South 8.1 mph - N/A   Overcast
6:53 PM 50.0 °F - 39.0 °F 66% 29.88 in 10.0 mi SSW 5.8 mph - 0.00 in   Overcast
7:53 PM 50.0 °F - 39.0 °F 66% 29.89 in 10.0 mi South 4.6 mph - 0.00 in   Overcast
8:53 PM 46.9 °F - 41.0 °F 80% 29.89 in 7.0 mi SSW 3.5 mph - 0.04 in Rain Light Rain
9:53 PM 46.0 °F 44.8 °F 42.1 °F 86% 29.89 in 10.0 mi SSW 3.5 mph - 0.03 in   Overcast
10:43 PM 46.0 °F 43.9 °F 43.0 °F 89% 29.87 in 8.0 mi Variable 4.6 mph - 0.02 in Rain Light Rain
10:53 PM 46.0 °F 43.9 °F 43.0 °F 89% 29.88 in 5.0 mi Variable 4.6 mph - 0.02 in Rain Light Rain
11:04 PM 46.0 °F 42.5 °F 43.0 °F 89% 29.86 in 4.0 mi SSW 6.9 mph - 0.01 in Rain Light Rain
11:16 PM 46.0 °F 43.9 °F 43.0 °F 89% 29.86 in 5.0 mi SSW 4.6 mph - 0.02 in Rain Light Rain
11:53 PM 46.0 °F 43.1 °F 43.0 °F 89% 29.86 in 6.0 mi SSW 5.8 mph - 0.04 in Rain Light Rain